Regional Weather Roundup
Issued by NWS Green Bay, WI

Home | Current Version | Previous Version | Graphics & Text | Print | Product List | Glossary Off
Versions: 1 2 3 4 5 6 7 8 9 10 11 12 13 14 15 16 17 18 19 20 21 22 23 24 25 26 27 28 29 30 31 32 33 34 35 36 37 38 39 40 41 42 43 44 45 46 47 48 49 50

000
ASUS43 KGRB 270511
RWRGRB

NORTH-CENTRAL AND NORTHEAST WISCONSIN REGIONAL WEATHER ROUNDUP
NATIONAL WEATHER SERVICE GREEN BAY WI
1200 AM CDT SAT AUG 27 2016

WIZ005-009-010>012-018-019-270600-
NORTH CENTRAL WISCONSIN

CITY           SKY/WX    TMP DP  RH WIND       PRES   REMARKS
IRONWOOD       PTCLDY    51  50  96 CALM      30.17S
MANITOWISH WTR PTCLDY    50  50 100 CALM      30.17F
ARBOR VITAE    PTCLDY    56  54  92 CALM      30.18S
EAGLE RIVER    CLOUDY    51  51 100 CALM      30.18S
LAND O LAKES   CLOUDY    49  49 100 CALM      30.19F
RHINELANDER    CLOUDY    55  55 100 N3        30.19S
PHILLIPS       CLOUDY    53  53  99 CALM      30.16F
ANTIGO         CLOUDY    57  56  96 CALM      30.18S
TOMAHAWK       CLOUDY    53  52  97 CALM      30.18F
MERRILL        CLOUDY    57  57 100 NE5       30.17F
$$

WIZ013-073-270600-
NORTHEAST WISCONSIN

CITY           SKY/WX    TMP DP  RH WIND       PRES   REMARKS
IRON MOUNTAIN  CLOUDY    58  53  84 CALM      30.17R
MARINETTE      CLOUDY   N/A N/A N/A NW3       30.16S
OCONTO         CLOUDY    61  59  93 CALM      30.14F
$$

WIZ017-030-035>037-045-270600-
CENTRAL WISCONSIN

CITY           SKY/WX    TMP DP  RH WIND       PRES   REMARKS
MEDFORD        CLOUDY    56  56 100 CALM      30.16F
WAUSAU         CLOUDY    62  57  83 CALM      30.15F
MOSINEE        CLOUDY    59  59 100 CALM      30.17F
MARSHFIELD     CLOUDY    62  57  83 CALM      30.15F
WISC RAPIDS    CLOUDY    62  59  90 NE6       30.15F
STEVENS POINT  CLOUDY    58  57  96 CALM      30.16F
WAUPACA        CLOUDY    64  63  96 CALM      30.15F
SHAWANO        CLOUDY    63  58  86 CALM      30.16S
CLINTONVILLE   PTCLDY    61  59  94 CALM      30.15S
WAUTOMA        CLOUDY    63  61  93 CALM      30.15F
$$

WIZ038-039-048-051-270600-
FOX VALLEY

CITY           SKY/WX    TMP DP  RH WIND       PRES   REMARKS
NWS GREEN BAY  MOCLDY    62  62 100 CALM      30.15F
APPLETON       CLOUDY    64  52  63 CALM      30.14F
OSHKOSH        CLOUDY    65  60  84 CALM      30.14S
FOND DU LAC    MOCLDY    64  60  87 SE3       30.14S
$$

WIZ022-050-052-270600-
EAST CENTRAL WISCONSIN

CITY           SKY/WX    TMP DP  RH WIND       PRES   REMARKS
EPHRAIM        FAIR      62  59  91 CALM      30.14F
WASHINGTON ISL NOT AVBL
STURGEON BAY   MOCLDY    63  58  83 CALM      30.16S
MANITOWOC      MOCLDY    61  58  90 CALM      30.15F
SHEBOYGAN      CLOUDY    62  59  90 CALM      30.15S
$$

LMZ563-521-522-541>543-270600-
LAKESHORE

STATION/POSITION TIME  TEMP    WIND        PRES    VSBY  WAVE
                       AIR SEA DIR/SP/G                  HT/PER
                 (UTC) (F)     (DEG/KT/KT) (MB)    (MI)  (FT/S)
SHEBOYGAN LKSHOR 0500   65      CALM  /  1 1020.6S
KEWAUNEE LKSHORE 0400   61     290/  1/  2 1020.7F
NORTHPORT PIER   0400   65     200/  2/  5 1020.7F
N MID LAKE BUOY  0450   68 71   50/  4/  6 1020.7R         1
S GREEN BAY BUOY 0400   69 72  270/  8/ 10 1020.5S
SISTER BAY LKSHO 0407   66        CALM       N/A
CHAMBERS ISLAND  0400   65      CALM  /  2 1020.7F
MENOMINEE LKSHOR 0400   67      20/  3/  4 1020.0S
$$




USA.gov is the U.S. government's official web portal to all federal, state and local government web resources and services.